Elk City, ID

4:08 AM PST on February 25, 2017 (GMT -0800)
Lowell

Weather History for KP69 - January, 2014

Change the Weather History Date:

Thursday, January 16, 2014

  Actual Average Record
Temperature  
Mean Temperature 37 °F -  
Max Temperature 48 °F 37 °F 48 °F (1999)
Min Temperature 28 °F 28 °F 7 °F (2017)
Degree Days  
Heating Degree Days 28    
Moisture  
Dew Point 30 °F    
Average Humidity 85    
Maximum Humidity 96    
Minimum Humidity 54    
Precipitation  
Precipitation 0.00 in - - ()
Sea Level Pressure  
Sea Level Pressure 30.65 in    
Wind  
Wind Speed 1 mph (North)    
Max Wind Speed 5 mph    
Max Gust Speed -    
Averages and records for this station are not official NWS values.
T = Trace of Precipitation, MM = Missing Value Source: NWS Daily Summary

Daily Weather History Graph

Daily Weather History Graph

Search for Another Location

Airport or City:

Trip Planner

Search our weather history database for the weather conditions in past years. The results will help you decide how hot, cold, wet, or windy it might be!

Date:

Astronomy

Jan. 16, 2014 Rise Set
Actual Time 8:18 AM MST 5:25 PM MST
Civil Twilight 7:45 AM MST 5:58 PM MST
Nautical Twilight 7:08 AM MST 6:35 PM MST
Astronomical Twilight 6:32 AM MST 7:10 PM MST
Moon 6:26 PM MST (1/16) 8:09 AM MST (1/16)
Length of Visible Light 10h 13m
Length of Day
9h 06m
Full, 100% of the Moon is Illuminated
Jan 16
Full
Jan 23
Last Quarter
Jan 30
New
Feb 6
First Quarter
Feb 14
Full

Hourly Weather History & Observations

Time (MST) Temp. Windchill Dew Point Humidity Pressure Visibility Wind Dir Wind Speed Gust Speed Precip Events Conditions
12:52 AM 30.9 °F - 30.0 °F 96% 30.68 in - Calm Calm - N/A   Unknown
1:52 AM 32.0 °F - 30.0 °F 92% 30.68 in - Calm Calm - N/A   Unknown
2:52 AM 32.0 °F - 30.0 °F 92% 30.68 in - Calm Calm - N/A   Unknown
3:52 AM 32.0 °F - 30.0 °F 92% 30.69 in - Calm Calm - N/A   Unknown
4:52 AM 32.0 °F 28.7 °F 30.0 °F 92% 30.70 in - Variable 3.5 mph - N/A   Unknown
5:52 AM 32.0 °F - 28.9 °F 88% 30.71 in - Calm Calm - N/A   Unknown
6:52 AM 30.9 °F - 28.9 °F 92% 30.71 in - Calm Calm - N/A   Unknown
7:52 AM 30.9 °F - 28.0 °F 89% 30.71 in - Calm Calm - N/A   Unknown
8:52 AM 30.9 °F - 28.0 °F 89% 30.73 in - Calm Calm - N/A   Unknown
9:52 AM 33.1 °F - 28.9 °F 85% 30.74 in - Calm Calm - N/A   Unknown
10:52 AM 37.0 °F - 30.9 °F 79% 30.71 in - Calm Calm - N/A   Unknown
11:52 AM 39.9 °F 37.8 °F 28.9 °F 65% 30.70 in - North 3.5 mph - N/A   Unknown
12:52 PM 43.0 °F 41.3 °F 30.0 °F 60% 30.66 in - NNE 3.5 mph - N/A   Unknown
1:52 PM 46.0 °F 44.8 °F 30.0 °F 54% 30.60 in - Variable 3.5 mph - N/A   Unknown
2:52 PM 45.0 °F 42.6 °F 33.1 °F 63% 30.58 in - North 4.6 mph - N/A   Unknown
3:52 PM 37.9 °F - 32.0 °F 79% 30.58 in - Calm Calm - N/A   Unknown
4:52 PM 35.1 °F - 32.0 °F 89% 30.58 in - Calm Calm - N/A   Unknown
5:52 PM 33.1 °F 30.0 °F 30.9 °F 92% 30.58 in - North 3.5 mph - N/A   Unknown
6:52 PM 30.9 °F - 28.9 °F 92% 30.59 in - Calm Calm - N/A   Unknown
7:52 PM 30.9 °F - 28.9 °F 92% 30.60 in - Calm Calm - N/A   Unknown
8:52 PM 30.0 °F - 28.0 °F 92% 30.60 in - Calm Calm - N/A   Unknown
9:52 PM 28.9 °F - 28.0 °F 96% 30.60 in - Calm Calm - N/A   Unknown
10:52 PM 30.0 °F - 28.0 °F 92% 30.58 in - Calm Calm - N/A   Unknown
11:52 PM 28.9 °F - 27.0 °F 92% 30.58 in - Calm Calm - N/A   Unknown